Year,Month,Day,Hour,Minute,Value (Times are PST for barometer in hPa)
2017,04,07,00,00,993.91
2017,04,07,00,01,993.84
2017,04,07,00,02,993.80
2017,04,07,00,03,993.80
2017,04,07,00,04,993.74
2017,04,07,00,05,993.67
2017,04,07,00,06,993.60
2017,04,07,00,07,993.57
2017,04,07,00,08,993.50
2017,04,07,00,09,993.53
2017,04,07,00,10,993.50
2017,04,07,00,11,993.43
2017,04,07,00,12,993.40
2017,04,07,00,13,993.43
2017,04,07,00,14,993.40
2017,04,07,00,15,993.40
2017,04,07,00,16,993.50
2017,04,07,00,17,993.41
2017,04,07,00,18,993.36
2017,04,07,00,19,993.40
2017,04,07,00,20,993.43
2017,04,07,00,21,993.23
2017,04,07,00,22,993.30
2017,04,07,00,23,993.30
2017,04,07,00,24,993.16
2017,04,07,00,25,993.09
2017,04,07,00,26,993.06
2017,04,07,00,27,993.06
2017,04,07,00,28,992.99
2017,04,07,00,29,992.96
2017,04,07,00,30,992.92
2017,04,07,00,31,992.89
2017,04,07,00,32,992.89
2017,04,07,00,33,992.86
2017,04,07,00,34,992.89
2017,04,07,00,35,992.86
2017,04,07,00,36,992.82
2017,04,07,00,37,992.89
2017,04,07,00,38,992.79
2017,04,07,00,39,992.79
2017,04,07,00,40,992.72
2017,04,07,00,41,992.69
2017,04,07,00,42,992.65
2017,04,07,00,43,992.48
2017,04,07,00,44,992.52
2017,04,07,00,45,992.48
2017,04,07,00,46,992.42
2017,04,07,00,47,992.31
2017,04,07,00,48,992.31
2017,04,07,00,49,992.31
2017,04,07,00,50,992.31
2017,04,07,00,51,992.18
2017,04,07,00,52,991.99
2017,04,07,00,53,992.01
2017,04,07,00,54,991.94
2017,04,07,00,55,991.98
2017,04,07,00,56,991.91
2017,04,07,00,57,991.81
2017,04,07,00,58,991.77
2017,04,07,00,59,991.84
2017,04,07,01,00,991.67
2017,04,07,01,01,991.70
2017,04,07,01,02,991.67
2017,04,07,01,03,991.70
2017,04,07,01,04,991.67
2017,04,07,01,05,991.67
2017,04,07,01,06,991.60
2017,04,07,01,07,991.57
2017,04,07,01,08,991.60
2017,04,07,01,09,991.60
2017,04,07,01,10,991.57
2017,04,07,01,11,991.60
2017,04,07,01,12,991.47
2017,04,07,01,13,991.50
2017,04,07,01,14,991.43
2017,04,07,01,15,991.43
2017,04,07,01,16,991.33
2017,04,07,01,17,991.33
2017,04,07,01,18,991.30
2017,04,07,01,19,991.23
2017,04,07,01,20,991.20
2017,04,07,01,21,991.16
2017,04,07,01,22,991.13
2017,04,07,01,23,991.06
2017,04,07,01,24,991.06
2017,04,07,01,25,991.03
2017,04,07,01,26,990.93
2017,04,07,01,27,990.89
2017,04,07,01,28,990.79
2017,04,07,01,29,990.70
2017,04,07,01,30,990.76
2017,04,07,01,31,990.65
2017,04,07,01,32,990.69
2017,04,07,01,33,990.55
2017,04,07,01,34,990.45
2017,04,07,01,35,990.55
2017,04,07,01,36,990.55
2017,04,07,01,37,990.49
2017,04,07,01,38,990.45
2017,04,07,01,39,990.35
2017,04,07,01,40,990.38
2017,04,07,01,41,990.42
2017,04,07,01,42,990.32
2017,04,07,01,43,990.35
2017,04,07,01,44,990.25
2017,04,07,01,45,990.18
2017,04,07,01,46,990.01
2017,04,07,01,47,990.18
2017,04,07,01,48,990.04
2017,04,07,01,49,990.08
2017,04,07,01,50,990.08
2017,04,07,01,51,990.11
2017,04,07,01,52,990.15
2017,04,07,01,53,990.18
2017,04,07,01,54,990.21
2017,04,07,01,55,990.25
2017,04,07,01,56,990.18
2017,04,07,01,57,990.15
2017,04,07,01,58,990.11
2017,04,07,01,59,990.08
2017,04,07,02,00,990.11
2017,04,07,02,01,989.98
2017,04,07,02,02,989.88
2017,04,07,02,03,989.81
2017,04,07,02,04,989.88
2017,04,07,02,05,989.88
2017,04,07,02,06,989.88
2017,04,07,02,07,989.77
2017,04,07,02,08,989.71
2017,04,07,02,09,989.74
2017,04,07,02,10,989.64
2017,04,07,02,11,989.54
2017,04,07,02,12,989.47
2017,04,07,02,13,989.44
2017,04,07,02,14,989.44
2017,04,07,02,15,989.47
2017,04,07,02,16,989.33
2017,04,07,02,17,989.27
2017,04,07,02,18,989.10
2017,04,07,02,19,989.06
2017,04,07,02,20,989.06
2017,04,07,02,21,989.03
2017,04,07,02,22,988.83
2017,04,07,02,23,988.79
2017,04,07,02,24,988.83
2017,04,07,02,25,988.72
2017,04,07,02,26,988.83
2017,04,07,02,27,988.76
2017,04,07,02,28,988.69
2017,04,07,02,29,988.72
2017,04,07,02,30,988.59
2017,04,07,02,31,988.59
2017,04,07,02,32,988.59
2017,04,07,02,33,988.52
2017,04,07,02,34,988.45
2017,04,07,02,35,988.39
2017,04,07,02,36,988.42
2017,04,07,02,37,988.35
2017,04,07,02,38,988.32
2017,04,07,02,39,988.42
2017,04,07,02,40,988.29
2017,04,07,02,41,988.32
2017,04,07,02,42,988.25
2017,04,07,02,43,988.35
2017,04,07,02,44,988.32
2017,04,07,02,45,988.18
2017,04,07,02,46,988.28
2017,04,07,02,47,988.25
2017,04,07,02,48,988.18
2017,04,07,02,49,988.25
2017,04,07,02,50,988.11
2017,04,07,02,51,988.25
2017,04,07,02,52,988.15
2017,04,07,02,53,988.15
2017,04,07,02,54,988.15
2017,04,07,02,55,988.15
2017,04,07,02,56,988.15
2017,04,07,02,57,988.08
2017,04,07,02,58,988.15
2017,04,07,02,59,988.11
2017,04,07,03,00,988.18
2017,04,07,03,01,988.11
2017,04,07,03,02,988.08
2017,04,07,03,03,988.05
2017,04,07,03,04,988.11
2017,04,07,03,05,987.98
2017,04,07,03,06,988.15
2017,04,07,03,07,987.91
2017,04,07,03,08,988.01
2017,04,07,03,09,988.05
2017,04,07,03,10,987.91
2017,04,07,03,11,988.04
2017,04,07,03,12,988.08
2017,04,07,03,13,988.15
2017,04,07,03,14,988.11
2017,04,07,03,15,988.08
2017,04,07,03,16,988.15
2017,04,07,03,17,988.25
2017,04,07,03,18,988.15
2017,04,07,03,19,988.15
2017,04,07,03,20,988.11
2017,04,07,03,21,988.11
2017,04,07,03,22,988.05
2017,04,07,03,23,988.08
2017,04,07,03,24,988.01
2017,04,07,03,25,988.11
2017,04,07,03,26,988.11
2017,04,07,03,27,988.08
2017,04,07,03,28,987.98
2017,04,07,03,29,987.89
2017,04,07,03,30,987.84
2017,04,07,03,31,987.84
2017,04,07,03,32,987.95
2017,04,07,03,33,987.98
2017,04,07,03,34,987.91
2017,04,07,03,35,987.84
2017,04,07,03,36,987.78
2017,04,07,03,37,987.78
2017,04,07,03,38,987.81
2017,04,07,03,39,987.84
2017,04,07,03,40,987.84
2017,04,07,03,41,987.84
2017,04,07,03,42,987.81
2017,04,07,03,43,987.67
2017,04,07,03,44,987.67
2017,04,07,03,45,987.64
2017,04,07,03,46,987.74
2017,04,07,03,47,987.74
2017,04,07,03,48,987.67
2017,04,07,03,49,987.61
2017,04,07,03,50,987.57
2017,04,07,03,51,987.51
2017,04,07,03,52,987.54
2017,04,07,03,53,987.47
2017,04,07,03,54,987.51
2017,04,07,03,55,987.47
2017,04,07,03,56,987.44
2017,04,07,03,57,987.40
2017,04,07,03,58,987.40
2017,04,07,03,59,987.34
2017,04,07,04,00,987.30
2017,04,07,04,01,987.23
2017,04,07,04,02,987.17
2017,04,07,04,03,987.17
2017,04,07,04,04,987.13
2017,04,07,04,05,987.10
2017,04,07,04,06,987.06
2017,04,07,04,07,986.93
2017,04,07,04,08,986.86
2017,04,07,04,09,986.76
2017,04,07,04,10,986.79
2017,04,07,04,11,986.86
2017,04,07,04,12,986.83
2017,04,07,04,13,986.83
2017,04,07,04,14,986.76
2017,04,07,04,15,986.83
2017,04,07,04,16,986.83
2017,04,07,04,17,986.79
2017,04,07,04,18,986.86
2017,04,07,04,19,986.83
2017,04,07,04,20,986.86
2017,04,07,04,21,986.96
2017,04,07,04,22,986.93
2017,04,07,04,23,986.93
2017,04,07,04,24,987.00
2017,04,07,04,25,986.96
2017,04,07,04,26,986.96
2017,04,07,04,27,986.79
2017,04,07,04,28,986.96
2017,04,07,04,29,986.96
2017,04,07,04,30,986.93
2017,04,07,04,31,986.80
2017,04,07,04,32,986.86
2017,04,07,04,33,986.76
2017,04,07,04,34,986.73
2017,04,07,04,35,986.62
2017,04,07,04,36,986.69
2017,04,07,04,37,986.79
2017,04,07,04,38,986.76
2017,04,07,04,39,986.76
2017,04,07,04,40,986.93
2017,04,07,04,41,986.84
2017,04,07,04,42,986.93
2017,04,07,04,43,986.96
2017,04,07,04,44,987.00
2017,04,07,04,45,987.00
2017,04,07,04,46,986.96
2017,04,07,04,47,987.09
2017,04,07,04,48,987.20
2017,04,07,04,49,987.29
2017,04,07,04,50,987.37
2017,04,07,04,51,987.37
2017,04,07,04,52,987.47
2017,04,07,04,53,987.47
2017,04,07,04,54,987.61
2017,04,07,04,55,987.71
2017,04,07,04,56,987.80
2017,04,07,04,57,987.88
2017,04,07,04,58,988.01
2017,04,07,04,59,988.15
2017,04,07,05,00,988.28
2017,04,07,05,01,988.32
2017,04,07,05,02,988.41
2017,04,07,05,03,988.35
2017,04,07,05,04,988.18
2017,04,07,05,05,988.05
2017,04,07,05,06,987.95
2017,04,07,05,07,987.88
2017,04,07,05,08,987.81
2017,04,07,05,09,987.71
2017,04,07,05,10,987.58
2017,04,07,05,11,987.47
2017,04,07,05,12,987.37
2017,04,07,05,13,987.40
2017,04,07,05,14,987.47
2017,04,07,05,15,987.47
2017,04,07,05,16,987.51
2017,04,07,05,17,987.47
2017,04,07,05,18,987.51
2017,04,07,05,19,987.54
2017,04,07,05,20,987.54
2017,04,07,05,21,987.61
2017,04,07,05,22,987.57
2017,04,07,05,23,987.57
2017,04,07,05,24,987.51
2017,04,07,05,25,987.47
2017,04,07,05,26,987.34
2017,04,07,05,27,987.23
2017,04,07,05,28,987.17
2017,04,07,05,29,987.20
2017,04,07,05,30,987.23
2017,04,07,05,31,987.20
2017,04,07,05,32,987.16
2017,04,07,05,33,987.00
2017,04,07,05,34,987.00
2017,04,07,05,35,987.06
2017,04,07,05,36,987.03
2017,04,07,05,37,987.06
2017,04,07,05,38,987.00
2017,04,07,05,39,987.06
2017,04,07,05,40,987.17
2017,04,07,05,41,987.17
2017,04,07,05,42,987.17
2017,04,07,05,43,987.10
2017,04,07,05,44,987.13
2017,04,07,05,45,987.10
2017,04,07,05,46,987.03
2017,04,07,05,47,987.06
2017,04,07,05,48,987.06
2017,04,07,05,49,987.03
2017,04,07,05,50,986.93
2017,04,07,05,51,986.83
2017,04,07,05,52,986.86
2017,04,07,05,53,986.83
2017,04,07,05,54,986.73
2017,04,07,05,55,986.86
2017,04,07,05,56,986.86
2017,04,07,05,57,986.93
2017,04,07,05,58,987.00
2017,04,07,05,59,987.03
2017,04,07,06,00,986.96
2017,04,07,06,01,987.05
2017,04,07,06,02,987.10
2017,04,07,06,03,987.10
2017,04,07,06,04,987.06
2017,04,07,06,05,987.03
2017,04,07,06,06,987.00
2017,04,07,06,07,987.00
2017,04,07,06,08,987.06
2017,04,07,06,09,987.13
2017,04,07,06,10,987.13
2017,04,07,06,11,987.20
2017,04,07,06,12,987.20
2017,04,07,06,13,987.13
2017,04,07,06,14,987.17
2017,04,07,06,15,987.10
2017,04,07,06,16,987.10
2017,04,07,06,17,987.06
2017,04,07,06,18,987.13
2017,04,07,06,19,987.06
2017,04,07,06,20,987.06
2017,04,07,06,21,987.10
2017,04,07,06,22,987.00
2017,04,07,06,23,987.00
2017,04,07,06,24,987.03
2017,04,07,06,25,987.03
2017,04,07,06,26,987.00
2017,04,07,06,27,986.93
2017,04,07,06,28,986.93
2017,04,07,06,29,986.86
2017,04,07,06,30,986.83
2017,04,07,06,31,986.73
2017,04,07,06,32,986.73
2017,04,07,06,33,986.66
2017,04,07,06,34,986.83
2017,04,07,06,35,986.95
2017,04,07,06,36,986.96
2017,04,07,06,37,987.00
2017,04,07,06,38,986.96
2017,04,07,06,39,986.86
2017,04,07,06,40,986.86
2017,04,07,06,41,986.83
2017,04,07,06,42,986.83
2017,04,07,06,43,986.96
2017,04,07,06,44,986.86
2017,04,07,06,45,986.86
2017,04,07,06,46,986.83
2017,04,07,06,47,986.83
2017,04,07,06,48,986.79
2017,04,07,06,49,986.83
2017,04,07,06,50,986.86
2017,04,07,06,51,986.79
2017,04,07,06,52,986.79
2017,04,07,06,53,986.86
2017,04,07,06,54,986.96
2017,04,07,06,55,986.93
2017,04,07,06,56,986.96
2017,04,07,06,57,986.86
2017,04,07,06,58,986.83
2017,04,07,06,59,986.83
2017,04,07,07,00,986.79
2017,04,07,07,01,986.79
2017,04,07,07,02,986.79
2017,04,07,07,03,986.79
2017,04,07,07,04,986.79
2017,04,07,07,05,986.76
2017,04,07,07,06,986.66
2017,04,07,07,07,986.69
2017,04,07,07,08,986.62
2017,04,07,07,09,986.56
2017,04,07,07,10,986.56
2017,04,07,07,11,986.46
2017,04,07,07,12,986.49
2017,04,07,07,13,986.49
2017,04,07,07,14,986.42
2017,04,07,07,15,986.42
2017,04,07,07,16,986.42
2017,04,07,07,17,986.46
2017,04,07,07,18,986.42
2017,04,07,07,19,986.52
2017,04,07,07,20,986.46
2017,04,07,07,21,986.49
2017,04,07,07,22,986.56
2017,04,07,07,23,986.59
2017,04,07,07,24,986.62
2017,04,07,07,25,986.59
2017,04,07,07,26,986.66
2017,04,07,07,27,986.66
2017,04,07,07,28,986.62
2017,04,07,07,29,986.62
2017,04,07,07,30,986.66
2017,04,07,07,31,986.66
2017,04,07,07,32,986.73
2017,04,07,07,33,986.73
2017,04,07,07,34,986.69
2017,04,07,07,35,986.69
2017,04,07,07,36,986.76
2017,04,07,07,37,986.76
2017,04,07,07,38,986.76
2017,04,07,07,39,986.76
2017,04,07,07,40,986.73
2017,04,07,07,41,986.73
2017,04,07,07,42,986.69
2017,04,07,07,43,986.66
2017,04,07,07,44,986.69
2017,04,07,07,45,986.66
2017,04,07,07,46,986.66
2017,04,07,07,47,986.59
2017,04,07,07,48,986.56
2017,04,07,07,49,986.59
2017,04,07,07,50,986.56
2017,04,07,07,51,986.56
2017,04,07,07,52,986.56
2017,04,07,07,53,986.62
2017,04,07,07,54,986.73
2017,04,07,07,55,986.79
2017,04,07,07,56,986.83
2017,04,07,07,57,986.79
2017,04,07,07,58,986.79
2017,04,07,07,59,986.76
2017,04,07,08,00,986.76
2017,04,07,08,01,986.69
2017,04,07,08,02,986.76
2017,04,07,08,03,986.73
2017,04,07,08,04,986.73
2017,04,07,08,05,986.76
2017,04,07,08,06,986.83
2017,04,07,08,07,986.76
2017,04,07,08,08,986.73
2017,04,07,08,09,986.79
2017,04,07,08,10,986.79
2017,04,07,08,11,986.69
2017,04,07,08,12,986.62
2017,04,07,08,13,986.56
2017,04,07,08,14,986.42
2017,04,07,08,15,986.42
2017,04,07,08,16,986.39
2017,04,07,08,17,986.35
2017,04,07,08,18,986.35
2017,04,07,08,19,986.52
2017,04,07,08,20,986.66
2017,04,07,08,21,986.62
2017,04,07,08,22,986.66
2017,04,07,08,23,986.73
2017,04,07,08,24,986.73
2017,04,07,08,25,986.76
2017,04,07,08,26,986.73
2017,04,07,08,27,986.73
2017,04,07,08,28,986.73
2017,04,07,08,29,986.69
2017,04,07,08,30,986.69
2017,04,07,08,31,986.66
2017,04,07,08,32,986.66
2017,04,07,08,33,986.62
2017,04,07,08,34,986.69
2017,04,07,08,35,986.59
2017,04,07,08,36,986.56
2017,04,07,08,37,986.59
2017,04,07,08,38,986.69
2017,04,07,08,39,986.59
2017,04,07,08,40,986.56
2017,04,07,08,41,986.49
2017,04,07,08,42,986.49
2017,04,07,08,43,986.46
2017,04,07,08,44,986.46
2017,04,07,08,45,986.46
2017,04,07,08,46,986.46
2017,04,07,08,47,986.46
2017,04,07,08,48,986.46
2017,04,07,08,49,986.39
2017,04,07,08,50,986.39
2017,04,07,08,51,986.35
2017,04,07,08,52,986.32
2017,04,07,08,53,986.29
2017,04,07,08,54,986.29
2017,04,07,08,55,986.32
2017,04,07,08,56,986.32
2017,04,07,08,57,986.29
2017,04,07,08,58,986.22
2017,04,07,08,59,986.22
2017,04,07,09,00,986.25
2017,04,07,09,01,986.18
2017,04,07,09,02,986.18
2017,04,07,09,03,986.22
2017,04,07,09,04,986.15
2017,04,07,09,05,986.15
2017,04,07,09,06,986.15
2017,04,07,09,07,986.12
2017,04,07,09,08,986.12
2017,04,07,09,09,986.08
2017,04,07,09,10,986.12
2017,04,07,09,11,986.08
2017,04,07,09,12,986.08
2017,04,07,09,13,986.18
2017,04,07,09,14,986.15
2017,04,07,09,15,986.08
2017,04,07,09,16,986.08
2017,04,07,09,17,986.05
2017,04,07,09,18,986.08
2017,04,07,09,19,985.98
2017,04,07,09,20,985.95
2017,04,07,09,21,985.98
2017,04,07,09,22,986.22
2017,04,07,09,23,986.29
2017,04,07,09,24,986.29
2017,04,07,09,25,986.32
2017,04,07,09,26,986.29
2017,04,07,09,27,986.35
2017,04,07,09,28,986.29
2017,04,07,09,29,986.22
2017,04,07,09,30,986.18
2017,04,07,09,31,986.18
2017,04,07,09,32,986.15
2017,04,07,09,33,986.15
2017,04,07,09,34,986.15
2017,04,07,09,35,986.15
2017,04,07,09,36,986.15
2017,04,07,09,37,986.18
2017,04,07,09,38,986.15
2017,04,07,09,39,986.18
2017,04,07,09,40,986.18
2017,04,07,09,41,986.18
2017,04,07,09,42,986.18
2017,04,07,09,43,986.15
2017,04,07,09,44,986.15
2017,04,07,09,45,986.18
2017,04,07,09,46,986.18
2017,04,07,09,47,986.25
2017,04,07,09,48,986.25
2017,04,07,09,49,986.25
2017,04,07,09,50,986.22
2017,04,07,09,51,986.22
2017,04,07,09,52,986.22
2017,04,07,09,53,986.25
2017,04,07,09,54,986.29
2017,04,07,09,55,986.32
2017,04,07,09,56,986.29
2017,04,07,09,57,986.22
2017,04,07,09,58,986.18
2017,04,07,09,59,986.35
2017,04,07,10,00,986.16
2017,04,07,10,01,986.22
2017,04,07,10,02,986.25
2017,04,07,10,03,986.18
2017,04,07,10,04,986.18
2017,04,07,10,05,986.25
2017,04,07,10,06,986.25
2017,04,07,10,07,986.22
2017,04,07,10,08,986.29
2017,04,07,10,09,986.32
2017,04,07,10,10,986.35
2017,04,07,10,11,986.29
2017,04,07,10,12,986.39
2017,04,07,10,13,986.18
2017,04,07,10,14,986.32
2017,04,07,10,15,986.35
2017,04,07,10,16,986.46
2017,04,07,10,17,986.48
2017,04,07,10,18,986.39
2017,04,07,10,19,986.39
2017,04,07,10,20,986.39
2017,04,07,10,21,986.35
2017,04,07,10,22,986.35
2017,04,07,10,23,986.39
2017,04,07,10,24,986.49
2017,04,07,10,25,986.59
2017,04,07,10,26,986.56
2017,04,07,10,27,986.62
2017,04,07,10,28,986.69
2017,04,07,10,29,986.57
2017,04,07,10,30,986.62
2017,04,07,10,31,986.73
2017,04,07,10,32,986.69
2017,04,07,10,33,986.62
2017,04,07,10,34,986.56
2017,04,07,10,35,986.46
2017,04,07,10,36,986.46
2017,04,07,10,37,986.46
2017,04,07,10,38,986.39
2017,04,07,10,39,986.56
2017,04,07,10,40,986.46
2017,04,07,10,41,986.56
2017,04,07,10,42,986.62
2017,04,07,10,43,986.46
2017,04,07,10,44,986.46
2017,04,07,10,45,986.42
2017,04,07,10,46,986.42
2017,04,07,10,47,986.55
2017,04,07,10,48,986.43
2017,04,07,10,49,986.52
2017,04,07,10,50,986.49
2017,04,07,10,51,986.49
2017,04,07,10,52,986.42
2017,04,07,10,53,986.35
2017,04,07,10,54,986.39
2017,04,07,10,55,986.39
2017,04,07,10,56,986.39
2017,04,07,10,57,986.42
2017,04,07,10,58,986.46
2017,04,07,10,59,986.49
2017,04,07,11,00,986.52
2017,04,07,11,01,986.42
2017,04,07,11,02,986.42
2017,04,07,11,03,986.42
2017,04,07,11,04,986.49
2017,04,07,11,05,986.56
2017,04,07,11,06,986.56
2017,04,07,11,07,986.59
2017,04,07,11,08,986.59
2017,04,07,11,09,986.52
2017,04,07,11,10,986.49
2017,04,07,11,11,986.39
2017,04,07,11,12,986.46
2017,04,07,11,13,986.42
2017,04,07,11,14,986.42
2017,04,07,11,15,986.49
2017,04,07,11,16,986.25
2017,04,07,11,17,986.34
2017,04,07,11,18,986.22
2017,04,07,11,19,986.25
2017,04,07,11,20,986.25
2017,04,07,11,21,986.12
2017,04,07,11,22,986.29
2017,04,07,11,23,986.45
2017,04,07,11,24,986.35
2017,04,07,11,25,986.32
2017,04,07,11,26,986.32
2017,04,07,11,27,986.25
2017,04,07,11,28,986.22
2017,04,07,11,29,986.22
2017,04,07,11,30,986.39
2017,04,07,11,31,986.29
2017,04,07,11,32,986.39
2017,04,07,11,33,986.18
2017,04,07,11,34,986.32
2017,04,07,11,35,986.48
2017,04,07,11,36,986.32
2017,04,07,11,37,986.15
2017,04,07,11,38,986.34
2017,04,07,11,39,986.25
2017,04,07,11,40,986.32
2017,04,07,11,41,986.39
2017,04,07,11,42,986.32
2017,04,07,11,43,986.46
2017,04,07,11,44,986.37
2017,04,07,11,45,986.73
2017,04,07,11,46,986.62
2017,04,07,11,47,986.52
2017,04,07,11,48,986.49
2017,04,07,11,49,986.56
2017,04,07,11,50,986.34
2017,04,07,11,51,986.66
2017,04,07,11,52,986.62
2017,04,07,11,53,986.59
2017,04,07,11,54,986.69
2017,04,07,11,55,986.66
2017,04,07,11,56,986.73
2017,04,07,11,57,986.62
2017,04,07,11,58,986.66
2017,04,07,11,59,987.16
2017,04,07,12,00,987.00
2017,04,07,12,01,987.00
2017,04,07,12,02,986.86
2017,04,07,12,03,986.83
2017,04,07,12,04,987.00
2017,04,07,12,05,986.76
2017,04,07,12,06,986.76
2017,04,07,12,07,986.66
2017,04,07,12,08,987.00
2017,04,07,12,09,986.96
2017,04,07,12,10,986.93
2017,04,07,12,11,986.86
2017,04,07,12,12,986.96
2017,04,07,12,13,986.93
2017,04,07,12,14,987.13
2017,04,07,12,15,987.10
2017,04,07,12,16,987.06
2017,04,07,12,17,986.93
2017,04,07,12,18,987.06
2017,04,07,12,19,987.17
2017,04,07,12,20,987.17
2017,04,07,12,21,987.20
2017,04,07,12,22,987.47
2017,04,07,12,23,987.21
2017,04,07,12,24,987.03
2017,04,07,12,25,987.10
2017,04,07,12,26,987.23
2017,04,07,12,27,987.13
2017,04,07,12,28,987.23
2017,04,07,12,29,987.44
2017,04,07,12,30,987.23
2017,04,07,12,31,987.30
2017,04,07,12,32,987.23
2017,04,07,12,33,987.20
2017,04,07,12,34,987.23
2017,04,07,12,35,987.20
2017,04,07,12,36,987.23
2017,04,07,12,37,987.27
2017,04,07,12,38,987.11
2017,04,07,12,39,987.13
2017,04,07,12,40,987.10
2017,04,07,12,41,986.90
2017,04,07,12,42,987.03
2017,04,07,12,43,987.06
2017,04,07,12,44,987.17
2017,04,07,12,45,987.17
2017,04,07,12,46,987.23
2017,04,07,12,47,987.34
2017,04,07,12,48,987.37
2017,04,07,12,49,987.37
2017,04,07,12,50,987.44
2017,04,07,12,51,987.37
2017,04,07,12,52,987.44
2017,04,07,12,53,987.44
2017,04,07,12,54,987.44
2017,04,07,12,55,987.54
2017,04,07,12,56,987.44
2017,04,07,12,57,987.51
2017,04,07,12,58,987.30
2017,04,07,12,59,987.47
2017,04,07,13,00,987.51
2017,04,07,13,01,987.51
2017,04,07,13,02,987.61
2017,04,07,13,03,987.57
2017,04,07,13,04,987.61
2017,04,07,13,05,987.54
2017,04,07,13,06,987.54
2017,04,07,13,07,987.57
2017,04,07,13,08,987.64
2017,04,07,13,09,987.67
2017,04,07,13,10,987.71
2017,04,07,13,11,987.64
2017,04,07,13,12,987.64
2017,04,07,13,13,987.54
2017,04,07,13,14,987.61
2017,04,07,13,15,987.74
2017,04,07,13,16,987.78
2017,04,07,13,17,987.95
2017,04,07,13,18,987.88
2017,04,07,13,19,987.91
2017,04,07,13,20,987.88
2017,04,07,13,21,987.98
2017,04,07,13,22,987.95
2017,04,07,13,23,987.91
2017,04,07,13,24,987.88
2017,04,07,13,25,987.91
2017,04,07,13,26,987.95
2017,04,07,13,27,987.88
2017,04,07,13,28,988.05
2017,04,07,13,29,987.95
2017,04,07,13,30,988.11
2017,04,07,13,31,988.05
2017,04,07,13,32,988.05
2017,04,07,13,33,988.01
2017,04,07,13,34,988.08
2017,04,07,13,35,988.18
2017,04,07,13,36,988.22
2017,04,07,13,37,988.25
2017,04,07,13,38,988.22
2017,04,07,13,39,988.18
2017,04,07,13,40,988.18
2017,04,07,13,41,988.11
2017,04,07,13,42,988.08
2017,04,07,13,43,988.15
2017,04,07,13,44,988.11
2017,04,07,13,45,988.08
2017,04,07,13,46,988.08
2017,04,07,13,47,988.05
2017,04,07,13,48,988.01
2017,04,07,13,49,988.05
2017,04,07,13,50,988.11
2017,04,07,13,51,988.22
2017,04,07,13,52,988.18
2017,04,07,13,53,988.18
2017,04,07,13,54,988.32
2017,04,07,13,55,988.25
2017,04,07,13,56,988.35
2017,04,07,13,57,988.45
2017,04,07,13,58,988.49
2017,04,07,13,59,988.49
2017,04,07,14,00,988.49
2017,04,07,14,01,988.49
2017,04,07,14,02,988.52
2017,04,07,14,03,988.62
2017,04,07,14,04,988.55
2017,04,07,14,05,988.55
2017,04,07,14,06,988.66
2017,04,07,14,07,988.69
2017,04,07,14,08,988.62
2017,04,07,14,09,988.83
2017,04,07,14,10,988.83
2017,04,07,14,11,988.86
2017,04,07,14,12,988.89
2017,04,07,14,13,988.93
2017,04,07,14,14,988.93
2017,04,07,14,15,988.83
2017,04,07,14,16,988.93
2017,04,07,14,17,988.96
2017,04,07,14,18,989.03
2017,04,07,14,19,989.06
2017,04,07,14,20,989.13
2017,04,07,14,21,989.13
2017,04,07,14,22,989.20
2017,04,07,14,23,989.16
2017,04,07,14,24,989.13
2017,04,07,14,25,989.27
2017,04,07,14,26,989.27
2017,04,07,14,27,989.37
2017,04,07,14,28,989.40
2017,04,07,14,29,989.50
2017,04,07,14,30,989.40
2017,04,07,14,31,989.33
2017,04,07,14,32,989.27
2017,04,07,14,33,989.37
2017,04,07,14,34,989.44
2017,04,07,14,35,989.47
2017,04,07,14,36,989.67
2017,04,07,14,37,989.60
2017,04,07,14,38,989.60
2017,04,07,14,39,989.60
2017,04,07,14,40,989.54
2017,04,07,14,41,989.54
2017,04,07,14,42,989.47
2017,04,07,14,43,989.50
2017,04,07,14,44,989.54
2017,04,07,14,45,989.54
2017,04,07,14,46,989.60
2017,04,07,14,47,989.57
2017,04,07,14,48,989.50
2017,04,07,14,49,989.57
2017,04,07,14,50,989.60
2017,04,07,14,51,989.33
2017,04,07,14,52,989.57
2017,04,07,14,53,989.60
2017,04,07,14,54,989.50
2017,04,07,14,55,989.64
2017,04,07,14,56,989.64
2017,04,07,14,57,989.47
2017,04,07,14,58,989.50
2017,04,07,14,59,989.64
2017,04,07,15,00,989.57
2017,04,07,15,01,989.54
2017,04,07,15,02,989.60
2017,04,07,15,03,989.64
2017,04,07,15,04,989.71
2017,04,07,15,05,989.71
2017,04,07,15,06,989.74
2017,04,07,15,07,989.74
2017,04,07,15,08,989.67
2017,04,07,15,09,989.83
2017,04,07,15,10,989.84
2017,04,07,15,11,989.93
2017,04,07,15,12,989.81
2017,04,07,15,13,989.88
2017,04,07,15,14,989.77
2017,04,07,15,15,989.81
2017,04,07,15,16,989.81
2017,04,07,15,17,989.81
2017,04,07,15,18,989.64
2017,04,07,15,19,989.71
2017,04,07,15,20,989.57
2017,04,07,15,21,989.76
2017,04,07,15,22,989.74
2017,04,07,15,23,989.91
2017,04,07,15,24,989.68
2017,04,07,15,25,989.77
2017,04,07,15,26,989.91
2017,04,07,15,27,989.98
2017,04,07,15,28,989.98
2017,04,07,15,29,990.28
2017,04,07,15,30,990.18
2017,04,07,15,31,990.18
2017,04,07,15,32,990.11
2017,04,07,15,33,990.08
2017,04,07,15,34,989.91
2017,04,07,15,35,989.94
2017,04,07,15,36,990.21
2017,04,07,15,37,990.32
2017,04,07,15,38,990.35
2017,04,07,15,39,990.38
2017,04,07,15,40,990.45
2017,04,07,15,41,990.15
2017,04,07,15,42,990.21
2017,04,07,15,43,990.28
2017,04,07,15,44,990.32
2017,04,07,15,45,990.21
2017,04,07,15,46,990.34
2017,04,07,15,47,990.42
2017,04,07,15,48,990.33
2017,04,07,15,49,990.35
2017,04,07,15,50,990.28
2017,04,07,15,51,990.42
2017,04,07,15,52,990.52
2017,04,07,15,53,990.15
2017,04,07,15,54,990.21
2017,04,07,15,55,990.28
2017,04,07,15,56,990.21
2017,04,07,15,57,990.25
2017,04,07,15,58,990.28
2017,04,07,15,59,990.28
2017,04,07,16,00,990.21
2017,04,07,16,01,990.11
2017,04,07,16,02,990.15
2017,04,07,16,03,990.24
2017,04,07,16,04,990.42
2017,04,07,16,05,990.45
2017,04,07,16,06,990.45
2017,04,07,16,07,990.45
2017,04,07,16,08,990.38
2017,04,07,16,09,990.32
2017,04,07,16,10,990.28
2017,04,07,16,11,990.35
2017,04,07,16,12,990.32
2017,04,07,16,13,990.55
2017,04,07,16,14,990.49
2017,04,07,16,15,990.39
2017,04,07,16,16,990.52
2017,04,07,16,17,990.28
2017,04,07,16,18,990.55
2017,04,07,16,19,990.49
2017,04,07,16,20,990.59
2017,04,07,16,21,990.59
2017,04,07,16,22,990.49
2017,04,07,16,23,990.42
2017,04,07,16,24,990.19
2017,04,07,16,25,990.35
2017,04,07,16,26,990.35
2017,04,07,16,27,990.38
2017,04,07,16,28,990.25
2017,04,07,16,29,990.35
2017,04,07,16,30,990.35
2017,04,07,16,31,990.62
2017,04,07,16,32,990.32
2017,04,07,16,33,990.35
2017,04,07,16,34,990.38
2017,04,07,16,35,990.42
2017,04,07,16,36,990.42